Terminal Aerodrome Forecast
Issued by NWS Pittsburgh, PA

Current Version | Previous Version | Graphics & Text | Print | Product List | Glossary On
Versions: 1 2 3 4 5 6 7 8 9 10 11 12 13 14 15 16 17 18 19 20 21 22 23 24 25 26 27 28 29
000
FTUS41 KPBZ 241700
TAFPIT
TAF
KPIT 241726Z 2418/2524 20010G20KT P6SM BKN250
     FM242300 21010KT P6SM BKN120
     FM250400 24010KT 5SM -SN OVC015
     FM250900 26009KT P6SM OVC020
     FM252100 30006KT P6SM SCT020=

USA.gov is the U.S. government's official web portal to all federal, state and local government web resources and services.